Terug naar catalogus

STARLINK-30174

ActiefCommunicatieVLEO
NORAD 57609·PAYLOAD·🇺🇸 United States

Gelanceerd Aug 11, 2023 vanaf Cape Canaveral Space Force Station

Loading…

Volgende Passages (komende 24 uur)

TLE

VersSource: CelesTrak SupGP

Epoch: Sep 15, 2026, 02:29 UTC

1 57609C 23119H   26258.10395833  .00020152  00000+0  72961-3 0  2583
2 57609  43.0023  91.5746 0001756 277.1393 248.5067 15.27580862    11

Volg STARLINK-30174 in realtime met AllMySat

Download on the App Store